CTV621 WAPP-WAYY

Flight info

Callsign CTV621
Flight time 1h 25m
Altitude 37000
Route ATOMY DCT KIKOS DCT TEGEN
Aircraft A320/M-SDE3FGHIRWY/LB1

Departure

Time 2026-04-28 06:43
Airport Pattimura International Airport (WAPP)

Arrival

Time 2026-04-28 08:08
Airport Mozes Kilangin Airport (WAYY)
Time Latitude Longitude Altitude Speed Heading
2026-04-28 06:22 -3.70628 128.08857 0 ft 0 kts 359°
2026-04-28 06:33 -3.70647 128.08858 36 ft 4 kts 355°
2026-04-28 06:33 -3.70673 128.08862 36 ft 4 kts 339°
2026-04-28 06:33 -3.70694 128.08875 34 ft 4 kts 286°
2026-04-28 06:33 -3.70696 128.08886 35 ft 1 kts 270°
2026-04-28 06:36 -3.70696 128.08863 36 ft 0 kts 270°
2026-04-28 06:36 -3.70695 128.08851 35 ft 4 kts 270°
2026-04-28 06:37 -3.70695 128.08812 36 ft 5 kts 269°
2026-04-28 06:37 -3.70717 128.08773 36 ft 8 kts 213°
2026-04-28 06:37 -3.70773 128.08766 36 ft 10 kts 180°
2026-04-28 06:37 -3.70851 128.08766 36 ft 11 kts 180°
2026-04-28 06:38 -3.70926 128.08766 35 ft 12 kts 180°
2026-04-28 06:38 -3.70992 128.08771 35 ft 7 kts 161°
2026-04-28 06:38 -3.71027 128.08796 35 ft 7 kts 134°
2026-04-28 06:38 -3.71074 128.08844 33 ft 11 kts 135°
2026-04-28 06:39 -3.71088 128.08905 33 ft 9 kts 64°
2026-04-28 06:39 -3.71040 128.08954 34 ft 10 kts 45°
2026-04-28 06:39 -3.70976 128.09019 35 ft 16 kts 45°
2026-04-28 06:39 -3.70893 128.09101 35 ft 17 kts 45°
2026-04-28 06:40 -3.70800 128.09193 36 ft 21 kts 44°
2026-04-28 06:40 -3.70697 128.09296 36 ft 22 kts 45°
2026-04-28 06:40 -3.70586 128.09407 36 ft 23 kts 45°
2026-04-28 06:40 -3.70467 128.09525 35 ft 25 kts 45°
2026-04-28 06:41 -3.70351 128.09641 34 ft 16 kts 44°
2026-04-28 06:41 -3.70292 128.09691 34 ft 10 kts 28°
2026-04-28 06:41 -3.70232 128.09715 34 ft 7 kts 29°
2026-04-28 06:41 -3.70225 128.09740 34 ft 4 kts 114°
2026-04-28 06:42 -3.70251 128.09743 34 ft 4 kts 211°
2026-04-28 06:42 -3.70266 128.09726 34 ft 3 kts 227°
2026-04-28 06:42 -3.70269 128.09722 34 ft 0 kts 226°
2026-04-28 06:42 -3.70327 128.09664 34 ft 43 kts 224°
2026-04-28 06:43 -3.70717 128.09277 37 ft 111 kts 225°
2026-04-28 06:43 -3.71400 128.08598 38 ft 163 kts 225°
2026-04-28 06:43 -3.72216 128.07770 652 ft 163 kts 226°
2026-04-28 06:43 -3.73002 128.06960 1369 ft 165 kts 225°
2026-04-28 06:44 -3.73853 128.06092 1710 ft 184 kts 225°
2026-04-28 06:44 -3.74818 128.05134 1965 ft 207 kts 224°
2026-04-28 06:44 -3.75898 128.04073 2330 ft 226 kts 223°
2026-04-28 06:44 -3.77263 128.03295 3009 ft 232 kts 189°
2026-04-28 06:45 -3.78843 128.03542 3730 ft 237 kts 152°
2026-04-28 06:45 -3.80161 128.04539 4524 ft 239 kts 136°
2026-04-28 06:45 -3.81304 128.05754 5320 ft 241 kts 131°
2026-04-28 06:45 -3.82408 128.07024 6097 ft 243 kts 131°
2026-04-28 06:46 -3.83528 128.08300 6883 ft 245 kts 132°
2026-04-28 06:46 -3.84680 128.09568 7649 ft 247 kts 132°
2026-04-28 06:46 -3.85866 128.10830 8381 ft 250 kts 133°
2026-04-28 06:46 -3.87111 128.12125 8818 ft 268 kts 133°
2026-04-28 06:47 -3.88443 128.13487 9388 ft 278 kts 133°
2026-04-28 06:47 -3.89815 128.14875 10079 ft 283 kts 133°
2026-04-28 06:47 -3.91214 128.16283 10750 ft 288 kts 133°
2026-04-28 06:47 -3.92614 128.17739 11434 ft 291 kts 127°
2026-04-28 06:48 -3.93636 128.19484 12109 ft 292 kts 109°
2026-04-28 06:48 -3.94095 128.21488 12511 ft 305 kts 92°
2026-04-28 06:48 -3.93880 128.23664 12657 ft 326 kts 73°
2026-04-28 06:48 -3.92869 128.25752 12923 ft 341 kts 53°
2026-04-28 06:49 -3.91353 128.27607 13456 ft 347 kts 50°
2026-04-28 06:49 -3.89812 128.29482 14087 ft 350 kts 51°
2026-04-28 06:49 -3.88265 128.31381 14685 ft 353 kts 51°
2026-04-28 06:49 -3.86710 128.33301 15271 ft 357 kts 51°
2026-04-28 06:50 -3.85142 128.35239 15862 ft 359 kts 51°
2026-04-28 06:50 -3.83558 128.37190 16430 ft 363 kts 51°
2026-04-28 06:50 -3.81891 128.39104 16983 ft 366 kts 48°
2026-04-28 06:50 -3.80150 128.40979 17534 ft 369 kts 47°
2026-04-28 06:51 -3.78365 128.42841 18067 ft 372 kts 47°
2026-04-28 06:51 -3.76561 128.44711 18581 ft 375 kts 47°
2026-04-28 06:51 -3.74747 128.46603 19093 ft 378 kts 47°
2026-04-28 06:51 -3.72930 128.48513 19594 ft 380 kts 47°
2026-04-28 06:52 -3.71108 128.50446 20088 ft 383 kts 48°
2026-04-28 06:52 -3.69275 128.52399 20580 ft 386 kts 48°
2026-04-28 06:52 -3.67437 128.54364 21035 ft 388 kts 48°
2026-04-28 06:52 -3.65587 128.56345 21483 ft 390 kts 48°
2026-04-28 06:53 -3.63729 128.58336 21931 ft 393 kts 48°
2026-04-28 06:53 -3.61855 128.60341 22355 ft 395 kts 48°
2026-04-28 06:53 -3.59971 128.62352 22781 ft 398 kts 48°
2026-04-28 06:53 -3.58068 128.64377 23188 ft 400 kts 48°
2026-04-28 06:54 -3.56221 128.66470 23581 ft 401 kts 55°
2026-04-28 06:54 -3.54751 128.68842 23966 ft 402 kts 65°
2026-04-28 06:54 -3.53692 128.71433 24336 ft 403 kts 70°
2026-04-28 06:54 -3.52704 128.74066 24704 ft 405 kts 70°
2026-04-28 06:55 -3.51705 128.76712 25074 ft 407 kts 70°
2026-04-28 06:55 -3.50696 128.79369 25439 ft 410 kts 70°
2026-04-28 06:55 -3.49678 128.82038 25783 ft 412 kts 70°
2026-04-28 06:55 -3.48653 128.84723 26121 ft 414 kts 70°
2026-04-28 06:56 -3.47623 128.87424 26452 ft 416 kts 70°
2026-04-28 06:56 -3.46591 128.90134 26771 ft 418 kts 70°
2026-04-28 06:56 -3.45554 128.92863 27080 ft 420 kts 70°
2026-04-28 06:56 -3.44514 128.95605 27368 ft 422 kts 70°
2026-04-28 06:57 -3.43470 128.98359 27660 ft 425 kts 70°
2026-04-28 06:57 -3.42420 129.01129 27947 ft 427 kts 70°
2026-04-28 06:57 -3.41364 129.03911 28234 ft 429 kts 69°
2026-04-28 06:57 -3.40298 129.06705 28512 ft 431 kts 69°
2026-04-28 06:58 -3.39228 129.09514 28797 ft 433 kts 69°
2026-04-28 06:58 -3.38154 129.12332 29068 ft 435 kts 69°
2026-04-28 06:58 -3.37074 129.15164 29337 ft 437 kts 69°
2026-04-28 06:58 -3.35991 129.18009 29590 ft 438 kts 69°
2026-04-28 06:59 -3.34905 129.20868 29806 ft 441 kts 69°
2026-04-28 06:59 -3.33812 129.23743 30061 ft 443 kts 69°
2026-04-28 06:59 -3.32713 129.26625 30252 ft 445 kts 69°
2026-04-28 06:59 -3.31605 129.29526 30437 ft 447 kts 69°
2026-04-28 07:00 -3.30491 129.32444 30573 ft 450 kts 69°
2026-04-28 07:00 -3.29373 129.35378 30733 ft 452 kts 69°
2026-04-28 07:00 -3.28249 129.38316 30929 ft 453 kts 69°
2026-04-28 07:00 -3.27121 129.41261 31152 ft 454 kts 69°
2026-04-28 07:01 -3.25994 129.44207 31471 ft 452 kts 69°
2026-04-28 07:01 -3.24875 129.47144 31805 ft 451 kts 70°
2026-04-28 07:01 -3.23757 129.50083 32007 ft 452 kts 70°
2026-04-28 07:01 -3.22639 129.53026 32146 ft 453 kts 70°
2026-04-28 07:02 -3.21519 129.55971 32279 ft 452 kts 70°
2026-04-28 07:02 -3.20416 129.58917 32405 ft 452 kts 72°
2026-04-28 07:02 -3.19806 129.61996 32560 ft 452 kts 87°
2026-04-28 07:02 -3.20024 129.65123 32708 ft 453 kts 102°
2026-04-28 07:03 -3.21005 129.68120 32848 ft 454 kts 110°
2026-04-28 07:03 -3.22151 129.71069 32979 ft 455 kts 110°
2026-04-28 07:03 -3.23308 129.74015 33199 ft 454 kts 110°
2026-04-28 07:03 -3.24295 129.77008 33460 ft 452 kts 105°
2026-04-28 07:04 -3.25172 129.80019 33784 ft 450 kts 105°
2026-04-28 07:04 -3.26040 129.83019 34071 ft 448 kts 105°
2026-04-28 07:04 -3.26902 129.86012 34382 ft 446 kts 105°
2026-04-28 07:04 -3.27760 129.88990 34665 ft 445 kts 105°
2026-04-28 07:05 -3.28618 129.91967 34861 ft 446 kts 105°
2026-04-28 07:05 -3.29477 129.94950 35022 ft 446 kts 106°
2026-04-28 07:05 -3.30334 129.97929 35249 ft 445 kts 106°
2026-04-28 07:05 -3.31191 130.00908 35386 ft 446 kts 106°
2026-04-28 07:06 -3.32052 130.03892 35602 ft 445 kts 106°
2026-04-28 07:06 -3.32633 130.05902 35747 ft 445 kts 106°
2026-04-28 07:06 -3.33493 130.08875 35978 ft 444 kts 106°
2026-04-28 07:06 -3.34351 130.11837 36185 ft 443 kts 106°
2026-04-28 07:07 -3.35207 130.14799 36377 ft 443 kts 106°
2026-04-28 07:07 -3.36062 130.17760 36535 ft 443 kts 106°
2026-04-28 07:07 -3.36918 130.20723 36696 ft 443 kts 106°
2026-04-28 07:07 -3.37774 130.23685 36810 ft 443 kts 106°
2026-04-28 07:08 -3.38631 130.26645 36838 ft 442 kts 106°
2026-04-28 07:08 -3.40350 130.32601 36842 ft 449 kts 106°
2026-04-28 07:09 -3.42087 130.38646 36837 ft 455 kts 106°
2026-04-28 07:09 -3.43837 130.44743 36839 ft 456 kts 106°
2026-04-28 07:10 -3.45598 130.50841 36838 ft 456 kts 106°
2026-04-28 07:10 -3.47357 130.56934 36838 ft 456 kts 106°
2026-04-28 07:11 -3.49117 130.63034 36847 ft 456 kts 106°
2026-04-28 07:11 -3.50871 130.69142 36848 ft 457 kts 106°
2026-04-28 07:12 -3.52627 130.75247 36851 ft 457 kts 106°
2026-04-28 07:12 -3.54388 130.81361 36851 ft 457 kts 106°
2026-04-28 07:13 -3.56147 130.87463 36853 ft 457 kts 106°
2026-04-28 07:13 -3.57907 130.93569 36854 ft 456 kts 106°
2026-04-28 07:14 -3.59659 130.99673 36853 ft 456 kts 106°
2026-04-28 07:14 -3.61402 131.05771 36852 ft 456 kts 106°
2026-04-28 07:15 -3.63147 131.11867 36850 ft 456 kts 106°
2026-04-28 07:15 -3.64903 131.17961 36850 ft 456 kts 106°
2026-04-28 07:16 -3.66661 131.24060 36851 ft 456 kts 106°
2026-04-28 07:16 -3.68417 131.30159 36852 ft 456 kts 106°
2026-04-28 07:17 -3.70185 131.36305 36855 ft 456 kts 106°
2026-04-28 07:17 -3.71935 131.42414 36855 ft 456 kts 106°
2026-04-28 07:18 -3.73681 131.48520 36850 ft 457 kts 106°
2026-04-28 07:18 -3.75438 131.54646 36839 ft 458 kts 106°
2026-04-28 07:19 -3.77203 131.60778 36833 ft 459 kts 106°
2026-04-28 07:19 -3.78975 131.66918 36831 ft 459 kts 106°
2026-04-28 07:20 -3.80733 131.73070 36833 ft 460 kts 106°
2026-04-28 07:20 -3.82490 131.79227 36838 ft 460 kts 106°
2026-04-28 07:21 -3.84247 131.85384 36842 ft 460 kts 106°
2026-04-28 07:21 -3.86011 131.91539 36843 ft 460 kts 106°
2026-04-28 07:22 -3.88654 132.00786 36848 ft 461 kts 106°
2026-04-28 07:22 -3.90420 132.06956 36851 ft 461 kts 106°
2026-04-28 07:23 -3.92191 132.13125 36858 ft 461 kts 105°
2026-04-28 07:23 -3.93957 132.19285 36859 ft 460 kts 105°
2026-04-28 07:24 -3.95717 132.25443 36857 ft 459 kts 105°
2026-04-28 07:24 -3.97479 132.31584 36854 ft 459 kts 105°
2026-04-28 07:25 -3.99231 132.37732 36853 ft 459 kts 105°
2026-04-28 07:25 -4.00976 132.43879 36853 ft 459 kts 105°
2026-04-28 07:26 -4.02737 132.50027 36853 ft 459 kts 105°
2026-04-28 07:26 -4.04502 132.56174 36854 ft 459 kts 105°
2026-04-28 07:27 -4.06256 132.62325 36855 ft 459 kts 105°
2026-04-28 07:27 -4.08005 132.68482 36852 ft 459 kts 104°
2026-04-28 07:28 -4.08924 132.74802 36847 ft 459 kts 96°
2026-04-28 07:28 -4.09582 132.81159 36835 ft 459 kts 96°
2026-04-28 07:29 -4.10237 132.87518 36834 ft 459 kts 96°
2026-04-28 07:29 -4.10905 132.93876 36828 ft 459 kts 96°
2026-04-28 07:30 -4.11574 133.00233 36834 ft 459 kts 96°
2026-04-28 07:30 -4.12239 133.06590 36832 ft 459 kts 96°
2026-04-28 07:31 -4.12892 133.12951 36829 ft 459 kts 96°
2026-04-28 07:31 -4.13562 133.19308 36828 ft 459 kts 96°
2026-04-28 07:32 -4.14229 133.25666 36825 ft 459 kts 96°
2026-04-28 07:32 -4.14891 133.32019 36827 ft 459 kts 96°
2026-04-28 07:33 -4.15553 133.38380 36807 ft 460 kts 96°
2026-04-28 07:33 -4.16213 133.44757 36803 ft 461 kts 96°
2026-04-28 07:34 -4.16873 133.51153 36802 ft 462 kts 96°
2026-04-28 07:34 -4.17542 133.57559 36807 ft 462 kts 96°
2026-04-28 07:35 -4.18208 133.63961 36812 ft 463 kts 96°
2026-04-28 07:35 -4.18873 133.70375 36816 ft 463 kts 96°
2026-04-28 07:36 -4.19544 133.76790 36822 ft 464 kts 96°
2026-04-28 07:36 -4.20203 133.83214 36826 ft 464 kts 96°
2026-04-28 07:37 -4.20865 133.89640 36825 ft 463 kts 96°
2026-04-28 07:37 -4.21534 133.96059 36823 ft 463 kts 96°
2026-04-28 07:38 -4.22193 134.02478 36824 ft 463 kts 96°
2026-04-28 07:38 -4.22852 134.08938 36824 ft 463 kts 96°
2026-04-28 07:39 -4.23518 134.15359 36824 ft 463 kts 96°
2026-04-28 07:39 -4.24192 134.21782 36824 ft 463 kts 96°
2026-04-28 07:40 -4.24880 134.28202 36828 ft 464 kts 96°
2026-04-28 07:40 -4.25566 134.34579 36825 ft 464 kts 96°
2026-04-28 07:41 -4.26258 134.40998 36825 ft 463 kts 96°
2026-04-28 07:41 -4.26839 134.46375 36828 ft 463 kts 96°
2026-04-28 07:42 -4.27533 134.52786 36824 ft 463 kts 96°
2026-04-28 07:42 -4.28230 134.59200 36820 ft 463 kts 96°
2026-04-28 07:43 -4.28935 134.65618 36808 ft 464 kts 96°
2026-04-28 07:43 -4.29647 134.72046 36802 ft 465 kts 96°
2026-04-28 07:44 -4.30362 134.78489 36798 ft 466 kts 96°
2026-04-28 07:44 -4.31081 134.84943 36806 ft 466 kts 96°
2026-04-28 07:45 -4.31801 134.91401 36809 ft 466 kts 96°
2026-04-28 07:45 -4.32160 134.94624 36416 ft 465 kts 96°
2026-04-28 07:45 -4.32520 134.97840 35699 ft 465 kts 96°
2026-04-28 07:46 -4.32881 135.01060 34967 ft 465 kts 96°
2026-04-28 07:46 -4.33247 135.04282 34202 ft 466 kts 96°
2026-04-28 07:46 -4.33615 135.07505 33423 ft 466 kts 96°
2026-04-28 07:46 -4.33998 135.10734 32605 ft 467 kts 98°
2026-04-28 07:47 -4.34743 135.13901 31793 ft 467 kts 105°
2026-04-28 07:47 -4.35622 135.17045 30911 ft 469 kts 105°
2026-04-28 07:47 -4.36502 135.20191 30047 ft 470 kts 104°
2026-04-28 07:47 -4.37335 135.23338 29440 ft 464 kts 103°
2026-04-28 07:48 -4.38101 135.26464 28786 ft 460 kts 103°
2026-04-28 07:48 -4.38826 135.29567 28141 ft 455 kts 103°
2026-04-28 07:48 -4.39528 135.32636 27509 ft 450 kts 103°
2026-04-28 07:48 -4.40227 135.35674 26897 ft 445 kts 103°
2026-04-28 07:49 -4.40922 135.38661 26465 ft 437 kts 103°
2026-04-28 07:49 -4.41620 135.41609 25839 ft 433 kts 103°
2026-04-28 07:49 -4.42323 135.44528 25213 ft 429 kts 104°
2026-04-28 07:49 -4.43026 135.47422 24584 ft 426 kts 104°
2026-04-28 07:50 -4.43720 135.50292 23950 ft 422 kts 104°
2026-04-28 07:50 -4.44401 135.53136 23337 ft 418 kts 103°
2026-04-28 07:50 -4.45076 135.55960 22710 ft 415 kts 103°
2026-04-28 07:50 -4.45747 135.58764 22084 ft 412 kts 103°
2026-04-28 07:51 -4.46413 135.61552 21458 ft 410 kts 103°
2026-04-28 07:51 -4.47074 135.64323 20833 ft 408 kts 103°
2026-04-28 07:51 -4.47745 135.67119 20199 ft 406 kts 103°
2026-04-28 07:51 -4.48398 135.69829 19579 ft 405 kts 103°
2026-04-28 07:52 -4.49065 135.72600 18943 ft 403 kts 103°
2026-04-28 07:52 -4.49720 135.75321 18317 ft 401 kts 103°
2026-04-28 07:52 -4.50372 135.78034 17692 ft 400 kts 103°
2026-04-28 07:52 -4.51020 135.80741 17066 ft 399 kts 103°
2026-04-28 07:53 -4.51664 135.83437 16437 ft 398 kts 103°
2026-04-28 07:53 -4.52304 135.86127 15807 ft 396 kts 103°
2026-04-28 07:53 -4.52944 135.88811 15183 ft 395 kts 103°
2026-04-28 07:53 -4.53577 135.91454 14571 ft 394 kts 104°
2026-04-28 07:54 -4.54223 135.94153 13935 ft 393 kts 104°
2026-04-28 07:54 -4.54856 135.96808 13299 ft 391 kts 104°
2026-04-28 07:54 -4.55488 135.99452 12680 ft 389 kts 104°
2026-04-28 07:54 -4.56116 136.02078 12052 ft 387 kts 104°
2026-04-28 07:55 -4.56740 136.04695 11427 ft 385 kts 104°
2026-04-28 07:55 -4.57358 136.07279 11034 ft 376 kts 104°
2026-04-28 07:55 -4.57954 136.09772 10930 ft 359 kts 104°
2026-04-28 07:55 -4.58521 136.12140 10951 ft 340 kts 104°
2026-04-28 07:56 -4.58952 136.14410 10952 ft 324 kts 94°
2026-04-28 07:56 -4.58810 136.16599 10951 ft 308 kts 77°
2026-04-28 07:56 -4.58241 136.18617 10949 ft 293 kts 72°
2026-04-28 07:56 -4.57665 136.20528 10950 ft 280 kts 72°
2026-04-28 07:57 -4.57113 136.22360 10951 ft 272 kts 72°
2026-04-28 07:57 -4.56568 136.24171 10952 ft 270 kts 72°
2026-04-28 07:57 -4.56019 136.25995 10591 ft 276 kts 72°
2026-04-28 07:57 -4.55462 136.27847 10163 ft 279 kts 72°
2026-04-28 07:58 -4.54898 136.29718 9740 ft 282 kts 73°
2026-04-28 07:58 -4.54329 136.31604 9311 ft 284 kts 73°
2026-04-28 07:58 -4.53757 136.33500 8879 ft 285 kts 73°
2026-04-28 07:58 -4.53183 136.35408 8457 ft 286 kts 73°
2026-04-28 07:59 -4.52607 136.37320 8030 ft 287 kts 73°
2026-04-28 07:59 -4.52029 136.39234 7607 ft 287 kts 73°
2026-04-28 07:59 -4.51452 136.41147 7181 ft 287 kts 73°
2026-04-28 07:59 -4.50876 136.43060 6756 ft 287 kts 73°
2026-04-28 08:00 -4.50302 136.44973 6330 ft 286 kts 73°
2026-04-28 08:00 -4.49735 136.46860 5897 ft 278 kts 73°
2026-04-28 08:00 -4.49189 136.48676 5472 ft 267 kts 73°
2026-04-28 08:00 -4.48661 136.50433 5036 ft 259 kts 73°
2026-04-28 08:01 -4.48152 136.52131 4610 ft 251 kts 73°
2026-04-28 08:01 -4.47656 136.53786 4196 ft 248 kts 73°
2026-04-28 08:01 -4.47159 136.55438 3854 ft 247 kts 73°
2026-04-28 08:01 -4.46666 136.57069 3606 ft 242 kts 73°
2026-04-28 08:02 -4.46182 136.58676 3361 ft 240 kts 73°
2026-04-28 08:02 -4.45701 136.60272 3105 ft 239 kts 73°
2026-04-28 08:02 -4.45370 136.61369 3001 ft 233 kts 73°
2026-04-28 08:02 -4.44961 136.62751 2910 ft 228 kts 77°
2026-04-28 08:03 -4.44864 136.64283 2942 ft 215 kts 95°
2026-04-28 08:03 -4.45084 136.65731 2950 ft 208 kts 102°
2026-04-28 08:03 -4.45386 136.67137 2949 ft 205 kts 102°
2026-04-28 08:03 -4.45683 136.68533 2947 ft 205 kts 100°
2026-04-28 08:04 -4.45739 136.69955 2912 ft 206 kts 82°
2026-04-28 08:04 -4.45471 136.71377 2620 ft 210 kts 78°
2026-04-28 08:04 -4.45149 136.72810 2358 ft 211 kts 78°
2026-04-28 08:04 -4.44847 136.74255 2103 ft 212 kts 86°
2026-04-28 08:05 -4.45001 136.75700 1959 ft 206 kts 110°
2026-04-28 08:05 -4.45642 136.76955 1950 ft 202 kts 123°
2026-04-28 08:05 -4.46386 136.78148 1952 ft 201 kts 123°
2026-04-28 08:05 -4.47092 136.79284 1956 ft 184 kts 122°
2026-04-28 08:06 -4.47746 136.80336 1806 ft 172 kts 122°
2026-04-28 08:06 -4.48357 136.81319 1613 ft 162 kts 122°
2026-04-28 08:06 -4.48936 136.82251 1426 ft 153 kts 123°
2026-04-28 08:06 -4.49493 136.83147 1214 ft 149 kts 123°
2026-04-28 08:07 -4.50038 136.84023 1016 ft 147 kts 123°
2026-04-28 08:07 -4.50576 136.84890 822 ft 147 kts 123°
2026-04-28 08:07 -4.51114 136.85756 628 ft 146 kts 123°
2026-04-28 08:07 -4.51649 136.86615 426 ft 145 kts 122°
2026-04-28 08:08 -4.52178 136.87478 235 ft 145 kts 123°
2026-04-28 08:08 -4.52708 136.88315 111 ft 130 kts 122°
2026-04-28 08:08 -4.53035 136.88843 108 ft 57 kts 122°
2026-04-28 08:08 -4.53199 136.89108 109 ft 23 kts 122°
2026-04-28 08:09 -4.53237 136.89196 109 ft 8 kts 103°
2026-04-28 08:09 -4.53261 136.89202 109 ft 5 kts 237°
2026-04-28 08:09 -4.53235 136.89158 109 ft 10 kts 307°
2026-04-28 08:09 -4.53186 136.89089 109 ft 14 kts 303°
2026-04-28 08:10 -4.53126 136.88992 109 ft 19 kts 301°
2026-04-28 08:10 -4.53052 136.88870 108 ft 23 kts 301°
2026-04-28 08:10 -4.52963 136.88725 109 ft 26 kts 302°
2026-04-28 08:10 -4.52868 136.88576 110 ft 25 kts 303°
2026-04-28 08:11 -4.52817 136.88491 111 ft 8 kts 285°
2026-04-28 08:11 -4.52836 136.88446 111 ft 9 kts 219°
2026-04-28 08:11 -4.52883 136.88416 110 ft 7 kts 212°
2026-04-28 08:11 -4.52927 136.88387 110 ft 9 kts 217°
2026-04-28 08:12 -4.52946 136.88350 110 ft 4 kts 242°
2026-04-28 08:12 -4.52966 136.88334 110 ft 4 kts 212°
2026-04-28 08:12 -4.52990 136.88321 110 ft 3 kts 210°
2026-04-28 08:12 -4.53002 136.88313 110 ft 1 kts 211°
2026-04-28 08:13 -4.53005 136.88311 110 ft 1 kts 211°